www.pogodaiklimat.ru

Погода и климат >> Архив погоды >> Россия >> Камчатский край >> Ключи


АРХИВ ПОГОДЫ в Ключах

Время (UTC), дата Ветер
(напр.,м/с)
 
Видим.   Явления Облачность Т
(С)
Тd
(С)
f
(%)
Тe
(С)
Тes
(С)
Комфортность P
(гПа)
Po
(гПа)
Тmin
(С)
Tmax
(С)
R
(мм)
R24
(мм)
S
(см)
09 18.06 В 6-12
{17}
20 км пыльный позёмок 10/6 930 м
[Sc Ac As]
+8.9 +5.0 77 +5 +5 1010.1 1006.6 +13.2
12 18.06 В 7-11
{15}
10 км пыльный позёмок 10/8 800 м
[Sc Ac As]
+8.5 +5.0 79 +4 +4 1010.0 1006.5
15 18.06 В 7-11
{14}
10 км пыльный позёмок 10/8 750 м
[Sc Ac As]
+8.5 +5.2 80 +4 +4 1009.2 1005.7
18 18.06 В 5-11
{14}
4000 м слаб. ливневой дождь 10/8 420 м
[Cb cap]
+8.0 +6.3 89 +4 +4 1009.0 1005.4
21 18.06 В 5-10
{12}
4000 м слаб. ливневой дождь 10/10 400 м
[Cb cap]
+8.3 +6.2 87 +5 +5 1008.8 1005.3 +7.8 0.8
00 19.06 В 5-10
{10}
4000 м слаб. ливневой дождь 10/10 400 м
[Cb cap]
+9.0 +6.5 84 +6 +6 1008.8 1005.3
03 19.06 В 4
{11}
10 км {ливн. осадки} 10/8 630 м
[Sc diur, vesp Ac trans]
+10.4 +5.7 73 +8 +9 1008.7 1005.2
06 19.06 В 4 10 км {ливн. осадки} 10/8 660 м
[Sc diur, vesp Ac trans]
+10.4 +5.6 72 +8 +8 1009.5 1006.0
09 19.06 В 3 4000 м слаб. ливневой дождь 10/10 360 м
[Cb cap]
+9.1 +5.3 77 +7 +7 1010.3 1006.8 +10.7 0.6
12 19.06 В 4 4000 м слаб. ливневой дождь 10/10 360 м
[Cb cap]
+7.7 +5.2 84 +4 +4 1011.2 1007.6
15 19.06 В 2 4000 м слаб. ливневой дождь 10/10 360 м
[Cb cap]
+6.9 +5.4 90 +5 +5 1011.8 1008.3
18 19.06 ЮВ 2 4000 м дымка {ливн. осадки} 10/10 400 м
[St]
+7.0 +4.8 86 +5 +5 1012.6 1009.0
21 19.06 В 3 10 км 10/10 630 м
[Sc]
+8.3 +4.5 77 +6 +6 1013.4 1009.8 +6.9 0.6
00 20.06 В 2 20 км 9/8 870 м
[Sc Ac trans]
+12.0 +5.6 65 +11 +13 1013.4 1009.9
03 20.06 ЮВ 1 50 км 10/10 1000 м
[Sc]
+12.6 +5.0 60 +13 +13 1012.7 1009.3
06 20.06 З 1 20 км {дождь} 10/10 960 м
[Sc]
+11.3 +8.0 80 +11 +11 1013.4 1009.9
09 20.06 В 2 20 км 9/6 960 м
[Sc diur, vesp Ac trans Ci fib]
+11.1 +6.2 72 +10 +10 1014.8 1011.3 +13.0 0.3
12 20.06 В 2 50 км 9/4 1000 м
[Sc Ac trans]
+8.7 +6.0 83 +7 +7 1016.3 1012.8
15 20.06 В 3 20 км 10/8 1080 м
[Sc Ac As]
+8.1 +5.9 86 +5 +5 1016.3 1012.8
18 20.06 В 2 10 км 10/10 630 м
[Sc]
+7.8 +5.4 85 +6 +6 1016.6 1013.1
21 20.06 ЮВ 3 10 км 10/8 540 м
[Sc Ac As]
+9.1 +5.5 78 +7 +7 1017.3 1013.8 +7.8
00 21.06 В 1 10 км 10/6 600 м
[Sc Ac As]
+11.7 +6.9 72 +12 +14 1017.3 1013.8
03 21.06 СЗ 2 20 км 10/4 1000 м
[Sc Ac As]
+12.2 +7.5 73 +11 +14 1016.7 1013.2
06 21.06 З 2 20 км 10/4 1000 м
[Sc Ac As]
+12.3 +8.3 77 +11 +12 1016.2 1012.7
09 21.06 В 3 10 км слаб. ливневой дождь 10/10 600 м
[Cb cap]
+10.5 +7.6 82 +8 +8 1016.6 1013.1 +13.3 0.3
12 21.06 В 2 10 км слаб. ливневой дождь 10/10 600 м
[Cb cap]
+9.2 +7.0 86 +7 +7 1017.5 1014.0
15 21.06 В 2 10 км слаб. ливневой дождь 10/10 600 м
[Cb cap]
+9.2 +7.0 86 +7 +7 1017.5 1014.2
18 21.06 В 3 10 км {ливн. осадки} 10/10 800 м
[Sc diur, vesp]
+8.3 +6.2 87 +6 +6 1017.8 1014.2
21 21.06 В 3 20 км 10/8 900 м
[Sc Ac As]
+8.3 +5.8 84 +6 +6 1018.0 1014.5 +8.2 2
00 22.06 В 2 20 км 10/8 900 м
[Sc Ac As]
+10.2 +6.0 75 +9 +10 1017.7 1014.2
03 22.06 В 2 20 км 10/6 1000 м
[Sc Ac As]
+11.7 +5.5 66 +11 +12 1017.1 1013.6
06 22.06 В 3 50 км 10/6 1000 м
[Sc Ac As]
+11.4 +5.9 69 +10 +10 1017.1 1013.6
09 22.06 В 4 50 км 10/6 1000 м
[Sc Ac As]
+9.7 +5.0 73 +7 +7 1017.6 1014.1 +12.2
12 22.06 В 2 20 км 10/8 1000 м
[Sc Ac As]
+8.3 +4.2 75 +7 +7 1018.3 1014.7
15 22.06 ЮВ 2 20 км 10/8 930 м
[Sc Ac As]
+7.3 +4.6 83 +5 +5 1018.4 1014.8
18 22.06 ЮВ 1 50 км 10/8 1050 м
[Sc Ac As]
+7.2 +4.5 83 +6 +6 1018.6 1015.0
21 22.06 В 2 50 км 10/8 1110 м
[Sc Ac As]
+8.1 +3.9 75 +6 +7 1019.1 1015.5 +7.1
00 23.06 В 2 50 км 10/8 1050 м
[Sc Ac As]
+10.2 +4.2 66 +9 +10 1018.9 1015.4
03 23.06 СВ 1 50 км 10/6 1080 м
[Sc Ac As]
+12.1 +4.3 59 +12 +14 1018.6 1015.1
06 23.06 СЗ 2 50 км 10/8 1050 м
[Sc Ac As]
+11.3 +6.4 72 +10 +11 1018.6 1015.1
09 23.06 штиль 0 20 км слаб. дождь 10/8 960 м
[Sc Ac As]
+10.7 +6.8 77 +10 +10 1019.1 1015.6 +12.5 0.0
12 23.06 В 1 20 км {дождь} 10/8 1000 м
[Sc Ac As]
+9.4 +6.9 84 +9 +9 1019.6 1016.1
15 23.06 В 1 20 км 10/6 1000 м
[Sc Ac As]
+8.9 +6.4 84 +8 +8 1020.1 1016.5
18 23.06 штиль 0 50 км 9/3 1000 м
[Sc Ac trans Ci fib]
+7.3 +5.9 91 +6 +7 1020.3 1016.8
21 23.06 СВ 1 50 км 9/3 1000 м
[Sc Ac trans Ci fib]
+12.2 +6.4 68 +12 +16 1020.1 1016.6 +7.2 0.0
00 24.06 В 2 50 км 9/4 1000 м
[Sc Ac trans Ci fib]
+13.8 +4.9 55 +13 +19 1019.6 1016.2
03 24.06 СВ 1 50 км 9/4 1000 м
[Sc Ac trans Ci fib]
+16.6 +3.6 42 +18 +23 1018.4 1015.0
06 24.06 В 2 50 км 9/4 1000 м
[Sc Ac trans Ci fib]
+17.0 +2.9 39 +17 +19 1017.8 1014.3
09 24.06 В 1 50 км 4/3 1000 м
[Sc Ac trans Ci fib]
+14.8 +5.8 55 +15 +16 1017.8 1014.3 +18.0
12 24.06 В 2 20 км 4/3 1000 м
[Sc Ac trans Ci fib]
+10.9 +5.1 67 +10 +10 1018.7 1015.2
15 24.06 ЮВ 2 20 км 4/3 1000 м
[Sc Ac trans]
+6.7 +4.5 86 +4 +4 1018.7 1015.1
18 24.06 штиль 0 50 км 5/3 1000 м
[Sc diur, vesp Ac trans Ci fib]
+5.4 +4.3 93 +4 +5 1018.9 1015.3
21 24.06 В 2 50 км 4/1 1000 м
[Sc Ac trans Ci fib]
+12.9 +6.1 63 +12 +17 1018.3 1014.8 +4.5
00 25.06 В 2 50 км 8/4 1000 м
[Sc Ac trans Ci]
+16.6 +4.4 44 +17 +23 1017.1 1013.7
03 25.06 СВ 2 50 км 9/4 1000 м
[Cu hum Ac trans Ci fib]
+18.2 +4.4 40 +19 +24 1015.5 1012.0
06 25.06 В 3 50 км 9/4 1000 м
[Cu Sc Ac trans Ci fib]
+17.5 +5.7 46 +18 +19 1014.8 1011.4

 

Местоположение метеостанции Ключи (Камчатский край, Россия): широта 56.32 долгота 160.80 высота над уровнем моря 29 м.

В архиве по умолчанию представлена погода в Ключах за последнюю неделю. Архивные данные за месяц целиком и за предыдущие месяцы, начиная с января 2011 года, Вы можете получить, выбрав интересующий диапазон дат из раскрывающегося списка и нажав кнопку "Ввод!".


*Определитесь, кто Вы:
робот инопланетянин человек

Внимание! Время в таблицах - всемирное. Для получения местного времени необходимо прибавить поправку, которая равна 12 ч.

Смотрите также архив погоды в соседних городах и на ближайших метеорологических станциях:

Погода в Козыревске (Камчатский край, Россия) (69 км)
Погода в Усть-Камчатске (Камчатский край, Россия) (118 км)
Погода в Эссо (Камчатский край, Россия) (137 км)
Погода на Мысе Африка (Камчатский край, Россия) (155 км)
Погода в Долиновке (Камчатский край, Россия) (175 км)
Погода в Тигиле (Камчатский край, Россия) (207 км)
Погода на Мысе Озерном (Камчатский край, Россия) (207 км)
Погода в Мильково (Камчатский край, Россия) (233 км)
Погода в Семячике (Камчатский край, Россия) (251 км)
Погода в Усть-Воямполке (Камчатский край, Россия) (263 км)

Пояснения к столбцам:

Ветер - указаны скорость ветра в м/с - средняя за 10 мин, порывы в срок и между сроками (в фигурных скобках) и направление, откуда дует ветер: С - северный, СВ - северо-восточный, В - восточный, ЮВ - юго-восточный, Ю - южный, ЮЗ - юго-западный, З - западный, СЗ - северо-западный.
Видимость - горизонтальная дальность видимости в метрах или километрах. При видимости от 1 до 10 км при отсутствии осадков обычно наблюдается дымка, при ухудшении видимости до 1 км и менее - туман. В сухую погоду видимость может ухудшаться дымом, пылью или мглою.
Явления - указаны атмосферные явления, наблюдавшиеся в срок или в последний час перед сроком; фигурными скобками обозначены явления, наблюдавшиеся между сроками (за 1-3 часа до срока); квадратными скобками обозначены град или гололедные отложения с указанием их диаметра в мм.
Облачность - указаны через наклонную черту общая и нижняя облачность в баллах и высота нижней границы облаков в метрах; квадратными скобками обозначены формы облаков: Ci - перистые, Cs - перисто-слоистые, Cc - перисто-кучевые, Ac - высококучевые, As - высокослоистые, Sc - слоисто-кучевые, Ns - слоисто-дождевые, Cu - кучевые, Cb - кучево-дождевые. Подробнее классификацию облаков см. в Атласе облаков (PDF).
T - Температура воздуха - температура, измеренная на высоте 2 м над землей.
Td - Температура точки росы - температура, при понижении до которой содержащийся в воздухе водяной пар достигнет насыщения.
f - Относительная влажность воздуха - влажноcть воздуха, измеренная на высоте 2 м над землей.
Te - Эффективная температура - температура, которую ощущает одетый по сезону человек в тени. Характеристика душности погоды. При расчете учитывается влияние влажности воздуха и скорости ветра на теплоощущения человека.
Tes - Эффективная температура на солнце - температура, которую ощущает человек, с поправкой на солнечный нагрев. Характеристика знойности погоды. Зависит от высоты солнца над горизонтом, облачности и скорости ветра. Ночью, в пасмурную погоду, а также при ветре 12 м/с и более поправка равна нулю.
P - Атмосферное давление - приведенное к уровню моря атмосферное давление.
Po - Атмосферное давление - измеренное на уровне метеостанции атмосферное давление.
Tmin - Минимальная температура - минимум температуры воздуха на высоте 2 м над землей.
Tmax - Максимальная температура - максимум температуры воздуха на высоте 2 м над землей.
R - Количество осадков - Количество выпавших осадков за период времени, мм. При наведении курсора мыши на число - период времени, за который выпало указанное количество осадков.
R24 - Количество осадков - Количество выпавших осадков за 24 часа, мм.
S - Снежный покров - Высота снежного покрова, см. При наведении курсора мыши на число - состояние снежного покрова и степень покрытия местности в баллах.